FENGYUN 1C DEB, 30944

Orbit data source: Space-Track

FENGYUN 1C DEB, 30944 is space debris in SSO originally from a launch on Mon, 10 May 1999 UTC launched from the Taiyaun Space Center, China (TSC). Fengyun 1C debris stems from the Chinese weather satellite Fengyun-1C, which was intentionally destroyed by a Chinese anti-satellite missile in 2007. This event dramatically increased the amount of space debris, with thousands of trackable fragments posing hazards to satellites and human spaceflight. The Fengyun 1C debris cloud has become a focal point in discussions about space sustainability and the need for international regulations to prevent the creation of new debris.

Loading next visibility...
Identifier
30944, 1999-025BAJ
Orbit
SSO
Country
Flag of CNCN / PRC
Related business
Manufacturer
Unknown
Mission
Spacecraft
Bus & Motor
Unknown
Mass
Unknown
Launch date (UTC)
1999-05-10 (27 years ago)
Launch vehicle
Unknown
Launch site
Taiyaun Space Center, China (TSC)
Object type
Payload
Rocket body
Debris
Shape & HBR
Unknown shape, 0.1 m
Radar Cross Section
Small (<0.1 m²)

Expand to show TLE details & history
Last TLE update: 8 hours ago

TLE from 8 hours ago
0 FENGYUN 1C DEB
1 30944U 99025BAJ 26112.13471250  .00000419  00000-0  10059-3 0  9992
2 30944  98.8271 179.7960 0148797  66.2319 325.2912 14.52662732  9459
Epoch: 2026-04-22T03:13Z
TLE epoch observation values (Epoch: 2026-04-22T03:13:59.159Z)
Latitude
30.19233°
Longitude
-84.05674°
Altitude
634.49 km
Speed
7.59 km/s
True Right ascension
11h 38m 33s
True Declination
30° 02' 26"
Sunlit
Object was in full shadow at epoch
Visualization orbit readout
Latitude
Unknown
Longitude
Unknown
Altitude
Unknown
Speed
Unknown
Apparent Right ascension
Unknown
Apparent Declination
Unknown
Sunlit
N/A
Visualization observer readout
Local Sidereal Time
18:42:59
Azimuth
Unknown
Elevation
Unknown
Doppler factor
Unknown
Orbital elements
Apogee altitude
819.615 km
Perigee altitude
608.555 km
Semi-major axis
7,092.222 km
Eccentricity
0.01488
Inclination
98.8271°
RAAN
179.796°
Arg. of periapsis
66.2319°
True anomaly
324.3053°
Mean anomaly
325.2912°
Eccentric anomaly
324.79976°
Mean motion
3.63387 °/min
Orbital period
99.07 mins
BSTAR
0.00010059
Loading maneuver chart data...
Computing Atmospheric mass density...

Documentation

Showing up to 5 results
|